Beatrice, NE

9:07 AM CDT on September 19, 2017 (GMT -0500)
Beatrice Municipal

Weather History for KBIE - March, 2013

Change the Weather History Date:

Thursday, March 28, 2013

  Actual Average Record
Temperature  
Mean Temperature 45 °F -  
Max Temperature 63 °F 60 °F 84 °F (1968)
Min Temperature 27 °F 35 °F 5 °F (1970)
Degree Days  
Heating Degree Days 20    
Moisture  
Dew Point 25 °F    
Average Humidity 51    
Maximum Humidity 90    
Minimum Humidity 19    
Precipitation  
Precipitation 0.00 in - - ()
Sea Level Pressure  
Sea Level Pressure 30.18 in    
Wind  
Wind Speed 4 mph (East)    
Max Wind Speed 10 mph    
Max Gust Speed -    
Visibility 10 miles    
Events      
Averages and records for this station are not official NWS values.
T = Trace of Precipitation, MM = Missing Value Source: NWS Daily Summary

Daily Weather History Graph

Daily Weather History Graph

Search for Another Location

Airport or City:

Trip Planner

Search our weather history database for the weather conditions in past years. The results will help you decide how hot, cold, wet, or windy it might be!

Date:

Astronomy

Mar. 28, 2013 Rise Set
Actual Time 7:16 AM CDT 7:47 PM CDT
Civil Twilight 6:49 AM CDT 8:15 PM CDT
Nautical Twilight 6:17 AM CDT 8:47 PM CDT
Astronomical Twilight 5:44 AM CDT 9:20 PM CDT
Moon 9:41 PM CDT (3/28) 7:45 AM CDT (3/28)
Length of Visible Light 13h 25m
Length of Day
12h 30m
Full, 98% of the Moon is Illuminated
Mar 28
Full
Apr 2
Last Quarter
Apr 10
New
Apr 18
First Quarter
Apr 25
Full

Hourly Weather History & Observations

Time (CDT) Temp. Windchill Dew Point Humidity Pressure Visibility Wind Dir Wind Speed Gust Speed Precip Events Conditions
12:15 AM 36.5 °F 32.7 °F 25.3 °F 64% 30.22 in 10.0 mi East 4.6 mph - N/A   Clear
12:35 AM 35.8 °F 33.0 °F 25.3 °F 66% 30.23 in 10.0 mi East 3.5 mph - N/A   Clear
12:55 AM 35.1 °F 31.0 °F 24.8 °F 66% 30.23 in 10.0 mi East 4.6 mph - N/A   Clear
1:15 AM 34.2 °F 30.0 °F 24.6 °F 68% 30.22 in 10.0 mi ENE 4.6 mph - N/A   Clear
1:35 AM 33.8 °F 29.6 °F 25.2 °F 71% 30.22 in 10.0 mi ENE 4.6 mph - N/A   Clear
1:55 AM 33.3 °F 30.2 °F 25.0 °F 72% 30.22 in 10.0 mi East 3.5 mph - N/A   Clear
2:15 AM 32.7 °F - 25.2 °F 74% 30.22 in 10.0 mi Calm Calm - N/A   Clear
2:35 AM 32.9 °F - 25.9 °F 75% 30.21 in 10.0 mi Calm Calm - N/A   Clear
2:55 AM 31.5 °F 28.1 °F 24.8 °F 76% 30.21 in 10.0 mi East 3.5 mph - N/A   Clear
3:15 AM 29.8 °F - 24.3 °F 80% 30.21 in 10.0 mi Calm Calm - N/A   Clear
3:35 AM 29.1 °F 24.1 °F 23.9 °F 81% 30.20 in 10.0 mi NE 4.6 mph - N/A   Clear
3:55 AM 28.9 °F - 23.9 °F 81% 30.20 in 10.0 mi Calm Calm - N/A   Clear
4:15 AM 29.3 °F 24.3 °F 24.3 °F 81% 30.20 in 10.0 mi NE 4.6 mph - N/A   Clear
4:35 AM 27.3 °F 20.9 °F 23.4 °F 85% 30.20 in 10.0 mi NE 5.8 mph - N/A   Clear
4:55 AM 27.3 °F 22.0 °F 23.4 °F 85% 30.20 in 10.0 mi ENE 4.6 mph - N/A   Clear
5:15 AM 27.5 °F 22.2 °F 23.7 °F 86% 30.20 in 7.0 mi ENE 4.6 mph - N/A   Clear
5:35 AM 28.6 °F 24.8 °F 25.2 °F 87% 30.20 in 7.0 mi ENE 3.5 mph - N/A   Clear
5:55 AM 28.0 °F 24.2 °F 24.6 °F 87% 30.20 in 7.0 mi ENE 3.5 mph - N/A   Clear
6:15 AM 27.5 °F 23.6 °F 24.6 °F 89% 30.20 in 7.0 mi NE 3.5 mph - N/A   Clear
6:35 AM 27.1 °F 21.8 °F 24.1 °F 88% 30.21 in 5.0 mi NE 4.6 mph - N/A   Clear
6:55 AM 27.3 °F 22.0 °F 24.6 °F 90% 30.20 in 5.0 mi ENE 4.6 mph - N/A   Clear
7:15 AM 27.3 °F - 24.6 °F 90% 30.20 in 7.0 mi Calm Calm - N/A   Clear
7:35 AM 27.9 °F - 24.8 °F 88% 30.21 in 5.0 mi Calm Calm - N/A   Clear
7:55 AM 27.5 °F 23.6 °F 24.6 °F 89% 30.21 in 5.0 mi ENE 3.5 mph - N/A   Clear
8:15 AM 30.0 °F 26.5 °F 26.4 °F 86% 30.21 in 7.0 mi East 3.5 mph - N/A   Clear
8:35 AM 31.3 °F - 27.0 °F 84% 30.21 in 10.0 mi Calm Calm - N/A   Clear
8:55 AM 34.0 °F 31.0 °F 29.3 °F 83% 30.22 in 10.0 mi East 3.5 mph - N/A   Clear
9:15 AM 37.9 °F 33.5 °F 31.5 °F 77% 30.21 in 10.0 mi East 5.8 mph - N/A   Clear
9:35 AM 40.5 °F 36.5 °F 31.3 °F 70% 30.22 in 10.0 mi East 5.8 mph - N/A   Clear
9:55 AM 42.8 °F 40.1 °F 32.0 °F 66% 30.21 in 10.0 mi East 4.6 mph - N/A   Clear
10:15 AM 45.5 °F 44.2 °F 31.5 °F 58% 30.21 in 10.0 mi East 3.5 mph - N/A   Clear
10:35 AM 47.3 °F - 30.4 °F 52% 30.21 in 10.0 mi East 3.5 mph - N/A   Clear
10:55 AM 49.5 °F - 29.5 °F 46% 30.22 in 10.0 mi East 4.6 mph - N/A   Clear
11:15 AM 50.9 °F - 28.4 °F 42% 30.22 in 10.0 mi NNE 5.8 mph - N/A   Clear
11:35 AM 52.9 °F - 28.2 °F 39% 30.22 in 10.0 mi NE 3.5 mph - N/A   Clear
11:55 AM 54.3 °F - 27.0 °F 35% 30.21 in 10.0 mi NE 8.1 mph - N/A   Clear
12:15 PM 55.6 °F - 27.0 °F 33% 30.21 in 10.0 mi ENE 4.6 mph - N/A   Scattered Clouds
12:35 PM 56.3 °F - 26.6 °F 32% 30.20 in 10.0 mi SE 6.9 mph - N/A   Clear
12:55 PM 57.2 °F - 26.6 °F 31% 30.19 in 10.0 mi East 9.2 mph - N/A   Clear
1:15 PM 57.2 °F - 25.5 °F 30% 30.19 in 10.0 mi East 4.6 mph - N/A   Clear
1:35 PM 58.5 °F - 25.5 °F 28% 30.18 in 10.0 mi East 6.9 mph - N/A   Clear
1:55 PM 60.1 °F - 25.0 °F 26% 30.18 in 10.0 mi South 3.5 mph - N/A   Clear
2:15 PM 59.4 °F - 24.6 °F 26% 30.17 in 10.0 mi ENE 3.5 mph - N/A   Clear
2:35 PM 59.9 °F - 24.1 °F 25% 30.16 in 10.0 mi Calm Calm - N/A   Clear
2:55 PM 61.7 °F - 23.0 °F 23% 30.15 in 10.0 mi SE 5.8 mph - N/A   Clear
3:15 PM 62.1 °F - 23.4 °F 23% 30.14 in 10.0 mi East 10.4 mph - N/A   Clear
3:35 PM 62.1 °F - 21.0 °F 21% 30.14 in 10.0 mi Calm Calm - N/A   Clear
3:55 PM 61.9 °F - 21.4 °F 21% 30.14 in 10.0 mi Calm Calm - N/A   Clear
4:15 PM 62.2 °F - 20.5 °F 20% 30.13 in 10.0 mi SSE 4.6 mph - N/A   Scattered Clouds
4:35 PM 62.4 °F - 20.8 °F 20% 30.13 in 10.0 mi SE 6.9 mph - N/A   Scattered Clouds
4:55 PM 62.1 °F - 20.1 °F 20% 30.12 in 10.0 mi East 3.5 mph - N/A   Mostly Cloudy
5:15 PM 63.3 °F - 20.3 °F 19% 30.12 in 10.0 mi East 6.9 mph - N/A   Scattered Clouds
5:35 PM 62.2 °F - 19.9 °F 20% 30.12 in 10.0 mi SE 6.9 mph - N/A   Mostly Cloudy
5:55 PM 62.1 °F - 19.6 °F 19% 30.12 in 10.0 mi SE 5.8 mph - N/A   Mostly Cloudy
6:15 PM 62.4 °F - 20.7 °F 20% 30.12 in 10.0 mi SE 5.8 mph - N/A   Scattered Clouds
6:35 PM 62.1 °F - 21.2 °F 21% 30.13 in 10.0 mi ESE 6.9 mph - N/A   Scattered Clouds
6:55 PM 60.8 °F - 23.2 °F 24% 30.13 in 10.0 mi East 8.1 mph - N/A   Clear
7:15 PM 59.4 °F - 23.5 °F 25% 30.14 in 10.0 mi East 6.9 mph - N/A   Clear
7:35 PM 57.4 °F - 24.1 °F 28% 30.14 in 10.0 mi East 4.6 mph - N/A   Clear
7:55 PM 55.6 °F - 24.3 °F 30% 30.14 in 10.0 mi East 5.8 mph - N/A   Clear
8:15 PM 54.9 °F - 23.7 °F 30% 30.15 in 10.0 mi ENE 5.8 mph - N/A   Clear
8:35 PM 53.4 °F - 23.9 °F 32% 30.15 in 10.0 mi East 4.6 mph - N/A   Scattered Clouds
8:55 PM 51.8 °F - 24.1 °F 34% 30.16 in 10.0 mi East 3.5 mph - N/A   Scattered Clouds
9:15 PM 51.8 °F - 24.3 °F 34% 30.17 in 10.0 mi ENE 3.5 mph - N/A   Clear
9:35 PM 49.1 °F - 25.7 °F 40% 30.17 in 10.0 mi ENE 4.6 mph - N/A   Clear
9:55 PM 49.8 °F - 25.7 °F 39% 30.18 in 10.0 mi ENE 4.6 mph - N/A   Scattered Clouds
10:15 PM 49.6 °F - 26.4 °F 41% 30.19 in 10.0 mi NE 5.8 mph - N/A   Mostly Cloudy
10:35 PM 50.2 °F - 26.8 °F 40% 30.19 in 10.0 mi NE 6.9 mph - N/A   Overcast
10:55 PM 49.6 °F - 27.1 °F 42% 30.19 in 10.0 mi East 3.5 mph - N/A   Overcast
11:15 PM 49.3 °F - 27.5 °F 43% 30.19 in 10.0 mi East 3.5 mph - N/A   Mostly Cloudy
11:35 PM 49.6 °F - 27.9 °F 43% 30.18 in 10.0 mi East 4.6 mph - N/A   Overcast
11:55 PM 48.4 °F - 28.4 °F 46% 30.18 in 10.0 mi East 4.6 mph - N/A   Mostly Cloudy